TimePDT,TemperatureF,Dew PointF,Humidity,Sea Level PressureIn,VisibilityMPH,Wind Direction,Wind SpeedMPH,Gust SpeedMPH,PrecipitationIn,Events,Conditions,WindDirDegrees,DateUTC
12:15 AM,48.2,48.2,100,30.05,10.0,NNE,4.6,-,N/A,,Clear,20,2013-05-13 07:15:00
12:35 AM,48.2,48.2,100,30.05,5.0,NNE,5.8,-,N/A,,Partly Cloudy,20,2013-05-13 07:35:00
12:55 AM,48.2,48.2,100,30.06,8.0,Calm,Calm,-,N/A,,Partly Cloudy,0,2013-05-13 07:55:00
1:15 AM,48.2,48.2,100,30.05,0.5,Calm,Calm,-,N/A,Fog,Fog,0,2013-05-13 08:15:00
1:35 AM,48.2,48.2,100,30.05,10.0,Calm,Calm,-,N/A,,Clear,0,2013-05-13 08:35:00
1:55 AM,48.2,48.2,100,30.05,10.0,Calm,Calm,-,N/A,,Clear,0,2013-05-13 08:55:00
2:15 AM,48.2,48.2,100,30.05,10.0,Calm,Calm,-,N/A,,Clear,0,2013-05-13 09:15:00
2:35 AM,48.2,48.2,100,30.05,10.0,Calm,Calm,-,N/A,,Clear,0,2013-05-13 09:35:00
2:55 AM,46.4,46.4,100,30.05,10.0,Calm,Calm,-,N/A,,Clear,0,2013-05-13 09:55:00
3:15 AM,48.2,48.2,100,30.05,10.0,Calm,Calm,-,N/A,,Mostly Cloudy,0,2013-05-13 10:15:00
3:35 AM,50.0,50.0,100,30.05,1.0,Calm,Calm,-,N/A,,Overcast,0,2013-05-13 10:35:00
3:55 AM,48.2,48.2,100,30.05,0.5,Calm,Calm,-,N/A,Fog,Fog,0,2013-05-13 10:55:00
4:15 AM,48.2,48.2,100,30.05,0.2,Calm,Calm,-,N/A,Fog,Fog,0,2013-05-13 11:15:00
4:35 AM,48.2,48.2,100,30.05,0.2,Calm,Calm,-,N/A,Fog,Fog,0,2013-05-13 11:35:00
4:55 AM,46.4,46.4,100,30.05,1.2,Calm,Calm,-,N/A,,Scattered Clouds,0,2013-05-13 11:55:00
5:15 AM,46.4,46.4,100,30.06,0.2,Calm,Calm,-,N/A,Fog,Fog,0,2013-05-13 12:15:00
5:35 AM,44.6,44.6,100,30.06,0.2,Calm,Calm,-,N/A,Fog,Fog,0,2013-05-13 12:35:00
5:55 AM,44.6,44.6,100,30.06,10.0,North,3.5,-,N/A,,Clear,350,2013-05-13 12:55:00
6:15 AM,44.6,44.6,100,30.07,0.2,Calm,Calm,-,N/A,Fog,Fog,0,2013-05-13 13:15:00
6:35 AM,44.6,44.6,100,30.07,0.2,Calm,Calm,-,N/A,Fog,Fog,0,2013-05-13 13:35:00
6:55 AM,44.6,44.6,100,30.08,0.2,North,3.5,-,N/A,Fog,Fog,10,2013-05-13 13:55:00
7:15 AM,46.4,46.4,100,30.08,0.2,Calm,Calm,-,N/A,Fog,Fog,0,2013-05-13 14:15:00
7:35 AM,48.2,48.2,100,30.09,0.2,North,3.5,-,N/A,Fog,Fog,10,2013-05-13 14:35:00
7:55 AM,48.2,48.2,100,30.09,10.0,Calm,Calm,-,N/A,,Mostly Cloudy,0,2013-05-13 14:55:00
8:15 AM,50.0,50.0,100,30.09,10.0,Calm,Calm,-,N/A,,Partly Cloudy,0,2013-05-13 15:15:00
8:35 AM,53.6,53.6,100,30.09,10.0,ENE,3.5,-,N/A,,Clear,60,2013-05-13 15:35:00
8:55 AM,55.4,53.6,94,30.10,10.0,Calm,Calm,-,N/A,,Clear,0,2013-05-13 15:55:00
9:15 AM,57.2,53.6,88,30.10,10.0,Calm,Calm,-,N/A,,Clear,0,2013-05-13 16:15:00
9:35 AM,59.0,53.6,82,30.10,10.0,East,3.5,-,N/A,,Clear,80,2013-05-13 16:35:00
9:55 AM,60.8,55.4,82,30.10,10.0,Calm,Calm,-,N/A,,Clear,0,2013-05-13 16:55:00
10:15 AM,62.6,55.4,77,30.09,10.0,Calm,Calm,-,N/A,,Clear,0,2013-05-13 17:15:00
10:35 AM,66.2,55.4,68,30.09,10.0,Calm,Calm,-,N/A,,Clear,0,2013-05-13 17:35:00
10:55 AM,68.0,55.4,64,30.09,10.0,SE,4.6,-,N/A,,Clear,140,2013-05-13 17:55:00
11:15 AM,68.0,57.2,68,30.09,10.0,SE,4.6,-,N/A,,Clear,140,2013-05-13 18:15:00
11:35 AM,71.6,57.2,60,30.09,10.0,SSE,4.6,-,N/A,,Clear,150,2013-05-13 18:35:00
11:55 AM,73.4,57.2,57,30.08,10.0,SE,5.8,-,N/A,,Clear,140,2013-05-13 18:55:00
12:15 PM,73.4,59.0,61,30.08,10.0,ENE,4.6,-,N/A,,Clear,60,2013-05-13 19:15:00
12:35 PM,77.0,57.2,50,30.07,10.0,North,5.8,-,N/A,,Clear,350,2013-05-13 19:35:00
1:35 PM,78.8,55.4,44,30.05,10.0,WSW,10.4,21.9,N/A,,Clear,250,2013-05-13 20:35:00
1:55 PM,78.8,57.2,47,30.04,10.0,WSW,10.4,-,N/A,,Clear,250,2013-05-13 20:55:00
2:15 PM,78.8,55.4,44,30.04,10.0,WSW,9.2,-,N/A,,Clear,240,2013-05-13 21:15:00
2:35 PM,80.6,57.2,45,30.03,10.0,NNW,6.9,-,N/A,,Clear,330,2013-05-13 21:35:00
2:55 PM,80.6,55.4,42,30.03,10.0,NNW,6.9,-,N/A,,Clear,330,2013-05-13 21:55:00
3:15 PM,80.6,57.2,45,30.02,10.0,WSW,12.7,-,N/A,,Clear,240,2013-05-13 22:15:00
3:35 PM,78.8,57.2,47,30.02,10.0,WSW,12.7,17.3,N/A,,Clear,240,2013-05-13 22:35:00
3:55 PM,77.0,57.2,50,30.00,10.0,SW,13.8,-,N/A,,Clear,220,2013-05-13 22:55:00
4:35 PM,77.0,55.4,47,29.99,10.0,SW,16.1,-,N/A,,Clear,220,2013-05-13 23:35:00
5:15 PM,75.2,53.6,47,29.98,10.0,SW,15.0,20.7,N/A,,Clear,220,2013-05-14 00:15:00
5:35 PM,73.4,53.6,50,29.97,10.0,SSW,8.1,17.3,N/A,,Clear,210,2013-05-14 00:35:00
5:55 PM,73.4,53.6,50,29.96,10.0,South,12.7,18.4,N/A,,Clear,190,2013-05-14 00:55:00
6:15 PM,71.6,51.8,50,29.96,10.0,SSW,6.9,19.6,N/A,,Clear,210,2013-05-14 01:15:00
6:35 PM,69.8,50.0,49,29.95,10.0,SW,13.8,20.7,N/A,,Clear,220,2013-05-14 01:35:00
6:55 PM,68.0,50.0,52,29.95,10.0,SW,9.2,19.6,N/A,,Clear,230,2013-05-14 01:55:00
7:15 PM,68.0,50.0,52,29.95,10.0,SSW,8.1,-,N/A,,Clear,210,2013-05-14 02:15:00
7:35 PM,68.0,50.0,52,29.94,10.0,SSW,9.2,-,N/A,,Clear,210,2013-05-14 02:35:00
7:55 PM,66.2,50.0,56,29.95,10.0,SSW,3.5,-,N/A,,Clear,200,2013-05-14 02:55:00
8:15 PM,64.4,50.0,59,29.95,10.0,SW,8.1,-,N/A,,Clear,230,2013-05-14 03:15:00
8:35 PM,64.4,50.0,59,29.96,10.0,South,3.5,-,N/A,,Clear,170,2013-05-14 03:35:00
8:55 PM,64.4,48.2,56,29.96,10.0,WSW,5.8,-,N/A,,Clear,250,2013-05-14 03:55:00
9:15 PM,62.6,48.2,59,29.96,10.0,Calm,Calm,-,N/A,,Clear,0,2013-05-14 04:15:00
9:35 PM,62.6,48.2,59,29.96,10.0,Calm,Calm,-,N/A,,Clear,0,2013-05-14 04:35:00
9:55 PM,60.8,48.2,63,29.97,10.0,SE,4.6,-,N/A,,Clear,130,2013-05-14 04:55:00
10:35 PM,59.0,50.0,72,29.97,10.0,East,4.6,-,N/A,,Clear,90,2013-05-14 05:35:00
10:55 PM,59.0,48.2,67,29.97,10.0,East,3.5,-,N/A,,Clear,80,2013-05-14 05:55:00
11:15 PM,57.2,48.2,72,29.96,10.0,Calm,Calm,-,N/A,,Clear,0,2013-05-14 06:15:00
11:35 PM,55.4,48.2,77,29.96,10.0,Calm,Calm,-,N/A,,Clear,0,2013-05-14 06:35:00
11:55 PM,55.4,48.2,77,29.96,10.0,East,3.5,-,N/A,,Clear,90,2013-05-14 06:55:00